Home   Weather   Wake Island   Past weeks
Flag for US Minor Outlying Islands

Past Weather in Wake Island, US Minor Outlying Islands — Yesterday and Last 2 Weeks

Now
83 °F

Clear.


Feels Like: 90 °F
Forecast: 89 / 81 °F
Wind: 10 mph from East

Location: Wake Island Airfld

Current Time: Oct 16, 2019 at 10:18:25 pm

Latest Report: Oct 16, 2019 at 8:58 pm


Visibility: N/A

Pressure: 29.94 "Hg

Humidity: 76%

Dew Point: 75 °F

Location of Wake IslandLocation

Past Weather in Wake Island — Graph

°F

Wake Island Temperature Yesterday

Maximum temperature yesterday: 85 °F (at 4:58 pm)
Minimum temperature yesterday: 75 °F (at 4:41 am)
Average temperature yesterday: 80 °F

High & Low Weather Summary for the Past Weeks

 TemperatureHumidityPressure
High96 °F (Oct 3, 2:58 pm)89% (Oct 5, 5:20 am)29.98 "Hg (Oct 5, 5:20 am)
Low75 °F (Oct 15, 4:41 am)57% (Oct 3, 2:58 pm)29.71 "Hg (Oct 3, 3:58 pm)
Average84 °F74%29.85 "Hg
* Reported Oct 1 8:58 pm — Oct 16 8:58 pm, Wake Island. Weather by CustomWeather, © 2019

Note: Actual official high and low records may vary slightly from our data, if they occured in-between our weather recording intervals... More about our weather records

Advertising

Wake Island Weather History for the Previous 24 Hours

Scroll right to see more
 ConditionsComfort  
Time TempWeatherWind HumidityBarometerVisibility
8:58 pm
Wed, Oct 16
83 °FClear.10 mph76%29.94 "HgN/A
7:58 pm83 °FPassing clouds.12 mph75%29.92 "HgN/A
6:58 pm83 °FPassing clouds.10 mph73%29.90 "HgN/A
5:58 pm84 °FScattered clouds.12 mph70%29.87 "HgN/A
4:58 pm86 °FPassing clouds.13 mph67%29.88 "HgN/A
3:58 pm87 °FPassing clouds.14 mph66%29.87 "HgN/A
2:58 pm87 °FPassing clouds.14 mph63%29.87 "HgN/A
1:58 pm88 °FSunny.12 mph58%29.88 "HgN/A
12:58 pm88 °FSunny.12 mph62%29.88 "HgN/A
11:58 am88 °FSunny.10 mph59%29.90 "HgN/A
10:58 am87 °FSunny.9 mph63%29.91 "HgN/A
9:58 am86 °FSunny.9 mph63%29.91 "HgN/A
8:58 am84 °FScattered clouds.9 mph70%29.90 "HgN/A
7:58 am82 °FSunny.6 mph71%29.89 "HgN/A
4:58 am80 °FPassing clouds.7 mph75%29.83 "Hg5 mi
3:58 am80 °FClear.9 mph74%29.83 "Hg5 mi
3:08 am81 °FPassing clouds.7 mph70%29.82 "Hg5 mi
2:58 am80 °FPassing clouds.7 mph73%29.82 "Hg5 mi
1:58 am80 °FClear.8 mph71%29.83 "Hg5 mi
12:58 am80 °FClear.13 mph70%29.84 "Hg5 mi
11:58 pm
Tue, Oct 15
80 °FHaze.9 mph71%29.84 "Hg5 mi
10:58 pm81 °FClear.13 mph70%29.85 "Hg5 mi
Weather by CustomWeather, © 2019

See weather overview